Regional Weather Roundup
Issued by NWS

Home | Current Version | Previous Version | Graphics & Text | Print | Product List | Glossary On
Versions: 1 2 3 4 5 6 7 8 9 10 11 12 13 14 15 16 17 18 19 20 21 22 23 24 25 26 27 28 29 30 31 32 33 34 35 36 37 38 39 40 41 42 43 44 45 46 47 48 49 50
000
ASUS43 KBIS 230610
RWRND

NORTH DAKOTA REGIONAL WEATHER ROUNDUP
NATIONAL WEATHER SERVICE BISMARCK ND
100 AM CDT SUN APR 23 2017

NOTE: "FAIR" INDICATES FEW OR NO CLOUDS BELOW 12,000 FEET WITH NO
SIGNIFICANT WEATHER AND/OR OBSTRUCTIONS TO VISIBILITY.


NDZ001>003-009>011-017-230700-
NORTHWEST NORTH DAKOTA

CITY           SKY/WX    TMP DP  RH WIND       PRES   REMARKS
WILLISTON      CLOUDY    38  34  85 E12       30.12F
6HR MIN TEMP:  38; 6HR MAX TEMP:  48; 6HR PCP: TRACE;

MINOT          CLOUDY    33  28  81 E17       30.20S
MINOT AFB      LGT RAIN  32  32 100 E14       30.20R
$$

NDZ018>021-031>035-040>046-230700-
SOUTHWEST NORTH DAKOTA

CITY           SKY/WX    TMP DP  RH WIND       PRES   REMARKS
BISMARCK       CLOUDY    38  31  76 E16       30.15S
6HR MIN TEMP:  38; 6HR MAX TEMP:  63;

DICKINSON      CLOUDY    36  33  89 E18       30.04F
GARRISON         N/A     32  28  85 E18G26    30.16S
6HR MIN TEMP:  32; 6HR MAX TEMP:  46;

HETTINGER ARPT CLOUDY    42  38  85 E20       30.02F
$$

NDZ004>008-012>016-024-026-027-054-230700-
NORTHEAST NORTH DAKOTA

CITY           SKY/WX    TMP DP  RH WIND       PRES   REMARKS
GRAND FORKS    CLOUDY    35  26  69 N21       30.24R
GRND FRKS AFB  CLOUDY    33  23  68 NE16      30.24R
DEVILS LAKE    MIX PCPN  32  27  81 NE18      30.23F
$$

NDZ022-023-025-028>030-036>039-047>053-230700-
SOUTHEAST NORTH DAKOTA

CITY           SKY/WX    TMP DP  RH WIND       PRES   REMARKS
FARGO          CLOUDY    37  33  85 N16       30.18R
6HR MIN TEMP:  37; 6HR MAX TEMP:  60; 6HR PCP: TRACE;

JAMESTOWN      CLOUDY    34  30  85 NE15      30.17S
$$




USA.gov is the U.S. government's official web portal to all federal, state and local government web resources and services.